{"data":{"norad_id":43782,"epoch":"2026-09-18T03:15:59.686272Z","epoch_age_seconds":259052,"freshness":"STALE","line1":"1 43782U 18099AA  26261.13610748  .00004914  00000+0  21133-3 0  9998","line2":"2 43782  97.3962 313.1241 0009052 338.1889  21.8961 15.23071167427174","mean_motion":15.23071167,"eccentricity":0.0009052,"inclination_deg":97.3962,"raan_deg":313.1241,"arg_perigee_deg":338.1889,"mean_anomaly_deg":21.8961,"bstar":0.00021133,"rev_number":42717,"period_min":94.545811856998,"perigee_km":490.36046282174,"apogee_km":502.80645674213,"semimajor_km":6874.7204597819,"source":"CELESTRAK","updated_at":"2026-09-20T09:00:14.403974Z"}}